Location: Tucson
(32.2217°N, 110.9265°W)
Time: 09:53:03
(UTC-07:00)

Tiangong 2 - Visible Passes

Search period start: 18 June 2019 00:00
Search period end: 28 June 2019 00:00
Orbit: 376 x 389 km, 42.8° (Epoch: 18 June)

Date Brightness Start Highest point End Pass type
(mag) Time Alt. Az. Time Alt. Az. Time Alt. Az.
21 Jun 3.4 04:05:38 12° S 04:07:17 16° SE 04:09:19 10° E visible
22 Jun 1.1 04:40:25 10° SW 04:43:31 72° SSE 04:46:41 10° ENE visible
23 Jun 2.1 03:42:58 30° SSE 03:43:24 31° SE 03:46:15 10° ENE visible
24 Jun 1.5 04:17:37 18° WSW 04:19:46 56° NNW 04:22:53 10° NE visible
25 Jun 1.6 03:20:03 55° E 03:20:03 55° E 03:22:41 10° ENE visible
26 Jun 2.5 03:54:35 21° WNW 03:56:04 31° NNW 03:58:56 10° NE visible
27 Jun 2.8 02:56:55 32° NE 02:56:55 32° NE 02:58:51 10° NE visible
27 Jun 3.7 04:30:52 10° NW 04:32:53 16° NNW 04:34:54 10° NNE visible
